When you browse on this site, cookies collect data to enhance your experience and personalize the content and advertising you see.
Visit our Privacy Policy to learn more. By continuing to use the site, you agree to this use of cookies and data.
  • In Romania
  • List of Countries
  • For 7 days
  • Water Temperature
  • Satellite Maps
  • Weather Map
  • Weather Widgets
  • user-avatar
    Login

    Hourly Weather Wronin

    Today, 19 December, Wednesday

    Time Temperature Precipitation Wind Pressure Humidity
    00:00 -4°C° 0 mm 2 mps 747 mmHg 91%
    01:00 -4°C° 0 mm 2 mps 747 mmHg 91%
    02:00 -5°C° 0 mm 2 mps 747 mmHg 91%
    03:00 -5°C° 0 mm 2 mps 747 mmHg 91%
    04:00 -5°C° 0 mm 2 mps 747 mmHg 91%
    05:00 -6°C° 0 mm 2 mps 747 mmHg 90%
    06:00 -6°C° 0 mm 2 mps 747 mmHg 89%
    07:00 -6°C° 0 mm 2 mps 746 mmHg 89%
    08:00 -6°C° 0 mm 2 mps 746 mmHg 86%
    09:00 -5°C° 0 mm 2 mps 746 mmHg 84%
    10:00 -5°C° 0 mm 3 mps 746 mmHg 81%
    11:00 -4°C° 0 mm 3 mps 746 mmHg 80%
    12:00 -2°C° 0 mm 3 mps 745 mmHg 79%
    13:00 -1°C° 0 mm 2 mps 745 mmHg 78%
    14:00 -2°C° 0 mm 2 mps 745 mmHg 81%
    15:00 -3°C° 0 mm 2 mps 744 mmHg 84%
    16:00 -4°C° 0 mm 2 mps 744 mmHg 87%
    17:00 -5°C° 0 mm 2 mps 744 mmHg 88%
    18:00 -5°C° 0 mm 2 mps 744 mmHg 88%
    19:00 -5°C° 0 mm 2 mps 744 mmHg 88%
    20:00 -5°C° 0 mm 2 mps 743 mmHg 87%
    21:00 -5°C° 0 mm 2 mps 743 mmHg 87%
    22:00 -5°C° 0 mm 2 mps 743 mmHg 86%
    23:00 -3°C° 0 mm 1 mps 743 mmHg 85%

    Tomorrow, 20 December, Thursday

    Time Temperature Precipitation Wind Pressure Humidity
    00:00 -3°C° 0 mm 1 mps 743 mmHg 84%
    01:00 -3°C° 0 mm 1 mps 743 mmHg 83%
    02:00 -2°C° 0 mm 1 mps 742 mmHg 82%
    03:00 -2°C° 0 mm 1 mps 742 mmHg 81%
    04:00 -2°C° 0 mm 1 mps 742 mmHg 80%
    05:00 -2°C° 0 mm 1 mps 742 mmHg 80%
    06:00 -2°C° 0 mm 1 mps 742 mmHg 80%
    07:00 -2°C° 0 mm 1 mps 742 mmHg 80%
    08:00 -2°C° 0 mm 1 mps 742 mmHg 79%
    09:00 -1°C° 0 mm 1 mps 742 mmHg 78%
    10:00 0°C° 0 mm 1 mps 742 mmHg 77%
    11:00 0°C° 0 mm 1 mps 742 mmHg 77%
    12:00 +1°C° 0 mm 1 mps 742 mmHg 78%
    13:00 +1°C° 0 mm 1 mps 741 mmHg 78%
    14:00 0°C° 0 mm 1 mps 741 mmHg 80%
    15:00 0°C° 0 mm 1 mps 741 mmHg 82%
    16:00 0°C° 0 mm 1 mps 742 mmHg 85%
    17:00 -2°C° 0.2 mm 2 mps 742 mmHg 87%
    18:00 -2°C° 0.2 mm 2 mps 742 mmHg 89%
    19:00 -2°C° 0.2 mm 2 mps 742 mmHg 91%
    20:00 -2°C° 0.2 mm 3 mps 742 mmHg 91%
    21:00 -2°C° 0.2 mm 3 mps 742 mmHg 90%
    22:00 -2°C° 0.2 mm 3 mps 742 mmHg 90%
    23:00 -1°C° 0 mm 3 mps 742 mmHg 89%

    Day after tomorrow, 21 December, Friday

    Time Temperature Precipitation Wind Pressure Humidity
    00:00 -1°C° 0 mm 3 mps 742 mmHg 89%
    01:00 -1°C° 0 mm 3 mps 742 mmHg 88%
    02:00 -1°C° 0 mm 3 mps 742 mmHg 88%
    03:00 -1°C° 0 mm 3 mps 742 mmHg 88%
    04:00 -1°C° 0 mm 3 mps 741 mmHg 89%
    05:00 -1°C° 0 mm 3 mps 741 mmHg 88%
    06:00 -2°C° 0 mm 3 mps 741 mmHg 88%
    07:00 -2°C° 0 mm 3 mps 741 mmHg 88%
    08:00 -1°C° 0 mm 3 mps 741 mmHg 87%
    09:00 0°C° 0 mm 3 mps 741 mmHg 86%
    10:00 +1°C° 0 mm 3 mps 741 mmHg 86%
    11:00 0°C° 0.2 mm 4 mps 740 mmHg 86%
    12:00 +1°C° 0.2 mm 4 mps 740 mmHg 86%
    13:00 +1°C° 0.2 mm 4 mps 739 mmHg 87%
    14:00 +1°C° 0.2 mm 4 mps 739 mmHg 86%
    15:00 +2°C° 0.2 mm 3 mps 738 mmHg 86%
    16:00 +2°C° 0.2 mm 3 mps 737 mmHg 86%
    17:00 +2°C° 0.3 mm 3 mps 737 mmHg 86%
    18:00 +1°C° 0.3 mm 4 mps 736 mmHg 86%
    19:00 +1°C° 0.3 mm 4 mps 736 mmHg 86%
    20:00 +1°C° 0.3 mm 4 mps 735 mmHg 85%
    21:00 +1°C° 0.3 mm 4 mps 734 mmHg 85%
    22:00 +1°C° 0.3 mm 4 mps 734 mmHg 85%
    23:00 +1°C° 0.8 mm 5 mps 733 mmHg 85%

    22 December, Saturday

    Time Temperature Precipitation Wind Pressure Humidity
    00:00 +2°C° 0.8 mm 6 mps 733 mmHg 86%
    01:00 +2°C° 0.8 mm 7 mps 732 mmHg 86%
    02:00 +3°C° 0.1 mm 7 mps 732 mmHg 87%
    03:00 +3°C° 0.1 mm 7 mps 732 mmHg 87%
    04:00 +3°C° 0.1 mm 7 mps 732 mmHg 87%
    05:00 +3°C° 0 mm 7 mps 732 mmHg 87%
    06:00 +3°C° 0 mm 6 mps 732 mmHg 87%
    07:00 +3°C° 0 mm 6 mps 732 mmHg 87%
    08:00 +3°C° 0.1 mm 6 mps 732 mmHg 87%
    09:00 +4°C° 0.1 mm 6 mps 733 mmHg 87%
    10:00 +4°C° 0.1 mm 6 mps 733 mmHg 88%
    11:00 +4°C° 0.3 mm 6 mps 732 mmHg 88%
    12:00 +4°C° 0.3 mm 6 mps 732 mmHg 88%
    13:00 +4°C° 0.3 mm 6 mps 731 mmHg 88%
    14:00 +4°C° 0.2 mm 6 mps 731 mmHg 88%
    15:00 +4°C° 0.2 mm 6 mps 731 mmHg 88%
    16:00 +4°C° 0.2 mm 6 mps 731 mmHg 88%
    17:00 +4°C° 0.1 mm 6 mps 732 mmHg 85%
    18:00 +4°C° 0.1 mm 7 mps 732 mmHg 83%
    19:00 +4°C° 0.1 mm 7 mps 732 mmHg 80%
    20:00 +4°C° 0.2 mm 7 mps 732 mmHg 82%
    21:00 +4°C° 0.2 mm 7 mps 732 mmHg 83%
    22:00 +4°C° 0.2 mm 7 mps 732 mmHg 84%
    23:00 +4°C° 0.1 mm 8 mps 733 mmHg 83%

    23 December, Sunday

    Time Temperature Precipitation Wind Pressure Humidity
    00:00 +2°C° 0.1 mm 8 mps 733 mmHg 81%
    01:00 +2°C° 0.1 mm 9 mps 733 mmHg 80%
    02:00 +2°C° 0.1 mm 9 mps 734 mmHg 80%
    03:00 +1°C° 0.1 mm 9 mps 735 mmHg 79%
    04:00 +1°C° 0.1 mm 9 mps 735 mmHg 79%
    05:00 +1°C° 0 mm 8 mps 736 mmHg 81%
    06:00 +1°C° 0 mm 6 mps 737 mmHg 83%
    07:00 +1°C° 0 mm 5 mps 738 mmHg 85%
    08:00 +1°C° 0 mm 5 mps 738 mmHg 85%
    09:00 +1°C° 0 mm 4 mps 739 mmHg 85%
    10:00 +1°C° 0 mm 4 mps 739 mmHg 85%
    11:00 +3°C° 0.1 mm 4 mps 739 mmHg 84%
    12:00 +3°C° 0.1 mm 4 mps 740 mmHg 83%
    13:00 +3°C° 0.1 mm 3 mps 740 mmHg 83%
    14:00 +3°C° 0.2 mm 3 mps 740 mmHg 85%
    15:00 +3°C° 0.2 mm 3 mps 740 mmHg 88%
    16:00 +3°C° 0.2 mm 2 mps 740 mmHg 90%
    17:00 +3°C° 0.3 mm 2 mps 740 mmHg 90%
    18:00 +2°C° 0.3 mm 3 mps 740 mmHg 90%
    19:00 +2°C° 0.3 mm 3 mps 741 mmHg 89%
    20:00 +2°C° 0.2 mm 3 mps 741 mmHg 89%
    21:00 +1°C° 0.2 mm 4 mps 741 mmHg 88%
    22:00 +1°C° 0.2 mm 4 mps 741 mmHg 87%
    23:00 +1°C° 0 mm 4 mps 741 mmHg 87%

    24 December, Monday

    Time Temperature Precipitation Wind Pressure Humidity
    00:00 +1°C° 0 mm 4 mps 741 mmHg 87%
    01:00 0°C° 0 mm 4 mps 741 mmHg 87%
    02:00 0°C° 0.1 mm 4 mps 741 mmHg 87%
    03:00 0°C° 0.1 mm 4 mps 741 mmHg 87%
    04:00 0°C° 0.1 mm 4 mps 740 mmHg 87%
    05:00 0°C° 0.1 mm 4 mps 740 mmHg 87%
    06:00 0°C° 0.1 mm 4 mps 740 mmHg 87%
    07:00 0°C° 0.1 mm 4 mps 740 mmHg 87%
    08:00 0°C° 0.5 mm 5 mps 740 mmHg 87%
    09:00 +1°C° 0.5 mm 5 mps 740 mmHg 86%
    10:00 +1°C° 0.5 mm 6 mps 740 mmHg 86%
    11:00 +1°C° 0.2 mm 6 mps 740 mmHg 84%
    12:00 +1°C° 0.2 mm 6 mps 741 mmHg 83%
    13:00 +2°C° 0.2 mm 6 mps 741 mmHg 81%
    14:00 +1°C° 0.1 mm 6 mps 741 mmHg 82%
    15:00 +1°C° 0.1 mm 6 mps 742 mmHg 83%
    16:00 -1°C° 0.1 mm 6 mps 743 mmHg 83%
    17:00 -1°C° 0.1 mm 6 mps 743 mmHg 84%
    18:00 0°C° 0.1 mm 5 mps 744 mmHg 86%
    19:00 0°C° 0.1 mm 4 mps 744 mmHg 87%
    20:00 -1°C° 0.1 mm 4 mps 745 mmHg 87%
    21:00 0°C° 0.1 mm 3 mps 745 mmHg 88%
    22:00 0°C° 0.1 mm 3 mps 746 mmHg 89%
    23:00 0°C° 0.1 mm 3 mps 746 mmHg 89%
    Show more